Dewpoint
42 42 41 39 39 40 39 40 41 41 42 42 43 44 43 44 44 42 42 51 50 49 52 55 58 62 65 68 68 69 69 69 69 68 67 66 66 66 66 66 66 65 65
42 40 40 39 38 39 40 40 41 40 40 41 41 42 42 43 43 44 42 43 51 49 49 52 54 57 61 64 67 68 68 69 69 68 68 66 66 65 65 65 65 65 65
41 41 39 38 39 39 41 40 40 40 39 39 41 40 41 42 41 43 43 43 43 51 51 50 51 53 54 59 63 65 66 68 68 68 68 67 66 65 65 65 65 65 65
40 39 37 38 40 39 38 38 38 38 38 39 39 38 39 41 42 43 43 44 43 43 48 51 49 50 53 55 61 63 65 66 67 68 68 67 66 66 65 65 65 65 65
40 38 37 38 39 37 37 37 37 38 37 37 36 37 40 40 43 42 46 48 49 49 49 52 52 52 53 53 54 57 61 62 66 67 68 67 67 66 65 65 65 64 64
39 37 36 38 37 36 36 37 38 38 37 36 34 36 40 43 45 43 44 46 45 48 48 49 50 52 55 56 57 57 57 58 60 63 66 67 67 66 65 65 65 64 64
37 37 34 35 36 36 37 37 36 37 36 37 36 36 39 43 45 40 43 45 43 44 45 44 46 48 50 56 55 55 56 58 61 63 63 64 66 66 65 65 65 64 64
35 32 34 34 37 34 36 36 36 35 35 36 34 36 35 39 37 40 40 41 43 41 41 44 47 51 53 52 50 50 51 53 55 58 61 63 65 65 65 65 65 64 64
31 34 33 34 35 34 32 34 34 35 33 34 36 32 33 32 32 38 38 39 42 40 43 44 49 49 48 47 46 45 46 47 51 54 57 60 63 65 65 65 65 65 64
28 31 32 32 33 32 33 32 32 33 33 32 33 32 33 33 32 31 34 37 36 42 44 44 44 44 44 44 44 43 44 44 48 52 55 57 60 64 65 65 65 65 64
26 27 30 30 30 30 32 33 33 32 30 30 30 30 32 32 33 32 30 31 32 38 41 40 41 41 40 41 41 42 42 43 45 49 52 55 58 61 64 65 65 65 65
23 26 26 27 27 28 29 30 31 32 30 30 30 30 29 30 29 29 29 29 29 32 40 38 37 38 39 39 40 41 40 41 42 45 47 50 53 56 60 64 64 66 65
20 24 25 25 24 26 26 27 28 29 30 29 30 29 29 29 29 28 29 29 29 32 38 39 36 37 37 38 39 39 39 39 40 42 44 46 48 51 54 56 61 65 65
20 24 23 24 24 25 25 26 24 25 29 30 30 30 29 29 29 30 30 30 30 35 36 34 37 35 37 36 38 38 36 37 38 39 41 42 43 45 46 48 49 55 63
16 22 22 22 23 24 25 25 23 25 26 27 29 30 29 29 29 30 31 31 31 30 32 34 33 35 36 36 37 36 35 36 36 37 38 39 40 41 42 43 44 47 51
20 20 21 22 21 23 24 24 23 24 24 24 25 27 27 28 28 29 30 31 32 32 33 33 34 36 35 35 35 34 35 34 36 36 37 37 38 39 39 40 41 42 43
21 20 21 21 23 22 24 25 25 25 24 25 25 25 26 26 25 27 28 29 29 30 32 34 34 34 34 33 35 34 33 32 33 34 35 35 35 35 36 37 37 38 40
23 22 21 22 23 23 26 25 24 26 26 25 27 25 26 24 26 23 24 27 28 28 29 29 30 30 32 32 34 35 33 31 32 33 33 35 34 34 34 34 35 36 36
28 28 27 25 26 27 26 27 26 25 25 26 26 26 26 27 28 29 27 25 25 25 28 28 28 28 28 29 30 31 34 31 28 31 30 32 32 32 33 34 34 34 35
28 29 29 28 27 28 28 27 27 27 26 26 25 25 25 25 25 27 29 26 28 28 28 28 28 28 28 31 30 30 29 32 29 28 30 31 30 30 30 31 33 35 35
24 29 28 31 32 30 29 26 23 27 27 26 25 25 23 21 19 21 21 24 24 26 27 27 26 26 25 25 25 30 29 31 31 29 31 30 30 30 29 28 29 31 32
20 20 22 24 27 21 22 21 20 23 25 22 22 20 16 16 15 15 15 17 19 20 22 22 22 21 21 21 25 26 28 26 25 27 27 28 31 28 28 29 24 25 27
20 19 19 20 21 21 21 20 19 18 17 18 18 16 10 8 12 8 9 10 12 15 15 17 18 18 18 18 20 22 24 26 23 22 25 26 26 27 29 27 22 22 22
19 19 20 20 20 19 20 17 17 18 18 18 16 16 14 12 13 9 5 4 5 6 11 9 14 14 13 14 14 13 16 21 21 17 16 20 22 24 28 24 18 20 20
18 19 19 20 19 19 19 17 17 14 14 16 17 17 16 14 17 17 6 4 6 10 10 14 14 14 15 15 15 10 10 10 17 21 18 19 21 22 26 25 20 18 19
16 18 19 22 21 22 19 18 17 17 18 19 19 18 17 16 16 16 11 8 9 14 16 17 19 19 17 17 14 17 15 11 14 17 16 17 19 20 21 25 23 19 19
Lifted_Index
11 11 12 12 13 13 13 13 13 13 13 13 13 12 12 12 12 12 11 11 11 11 11 8 4 1 -1 -2 -3 -4 -4 -5 -5 -4 -4 -3 -3 -2 -2 -2 -1 -1 -0
12 12 13 13 13 13 13 13 13 13 13 13 13 13 12 12 12 12 12 11 11 11 11 10 8 5 2 -0 -2 -3 -4 -4 -4 -4 -4 -3 -3 -3 -2 -2 -1 -1 -1
13 13 13 14 14 14 14 14 13 13 13 13 13 12 12 12 12 12 12 12 11 11 11 11 10 9 6 3 1 -1 -2 -3 -4 -4 -4 -4 -3 -3 -2 -2 -2 -1 -1
14 14 14 14 14 14 14 14 13 13 13 13 12 12 12 12 12 12 12 11 11 11 10 10 10 10 9 7 4 2 -0 -2 -3 -4 -4 -4 -3 -3 -2 -2 -2 -1 -1
14 14 14 14 14 14 14 13 13 13 13 13 13 12 12 12 12 12 11 11 10 10 9 9 9 9 8 8 6 5 3 1 -1 -2 -3 -4 -3 -3 -3 -2 -2 -1 -1
14 14 14 14 14 14 13 13 13 13 13 12 12 12 12 11 11 12 11 11 11 10 10 9 9 8 7 7 7 6 5 4 2 -0 -2 -3 -3 -3 -3 -3 -2 -2 -1
15 14 14 14 14 13 13 13 13 13 12 11 11 11 10 10 11 12 12 12 11 11 11 11 10 9 8 7 7 7 6 6 4 2 -0 -2 -3 -3 -3 -3 -3 -2 -2
15 14 14 14 14 14 13 13 13 12 12 11 10 10 9 9 10 11 12 12 12 12 12 12 11 10 9 8 8 7 7 6 5 4 2 0 -2 -3 -3 -3 -3 -3 -2
15 14 14 14 14 14 14 14 13 13 12 11 10 9 8 8 8 9 11 12 12 12 13 12 11 11 10 10 9 8 8 7 6 5 4 2 0 -1 -2 -3 -3 -3 -3
15 15 15 15 15 15 14 14 14 13 12 11 10 9 9 8 8 8 9 10 11 12 13 12 12 12 11 11 11 10 9 8 7 6 5 4 2 0 -1 -2 -3 -3 -3
15 15 15 15 15 15 15 15 14 14 13 12 11 9 8 8 8 7 7 8 10 12 12 13 12 12 12 12 12 11 10 9 8 7 6 5 3 2 -0 -1 -2 -3 -3
15 15 15 15 15 15 15 15 15 15 14 13 11 9 8 8 7 7 7 7 8 10 12 13 13 13 13 14 14 13 11 10 9 8 7 5 4 2 1 -0 -1 -2 -3
14 15 15 15 15 16 16 16 16 15 14 13 12 10 9 8 8 8 7 7 7 9 11 12 13 14 15 15 16 15 13 11 9 8 7 5 4 3 2 1 -0 -1 -2
15 15 16 16 16 16 17 16 16 15 14 14 13 12 10 10 9 9 8 7 7 8 9 11 13 15 15 16 16 16 15 13 11 10 8 6 4 3 2 2 1 -1 -2
16 16 17 17 17 17 17 17 16 15 15 14 14 13 12 11 10 10 10 9 8 8 9 11 13 15 16 16 17 16 16 15 14 12 11 9 7 5 4 3 2 0 -1
17 17 17 17 17 17 17 17 16 16 15 14 14 13 13 12 11 11 11 10 10 9 9 11 14 15 16 17 17 17 17 17 16 15 14 12 10 8 6 5 4 2 1
17 17 17 17 17 17 17 17 16 15 14 14 13 13 13 13 13 12 12 11 11 10 9 11 13 15 15 16 17 17 17 17 17 17 17 15 14 12 10 9 8 6 4
18 18 18 17 17 17 17 16 16 15 14 13 13 12 13 13 13 13 13 12 12 11 10 10 12 13 14 15 16 17 17 18 18 18 18 17 17 15 14 13 12 10 9
18 18 18 17 17 16 16 16 16 15 14 14 13 13 13 13 13 13 14 14 13 13 12 12 12 13 14 15 16 16 16 17 18 19 19 19 19 18 17 16 15 14 13
18 18 17 17 17 16 16 16 16 15 14 14 14 14 14 14 14 14 14 14 14 14 14 13 13 14 15 15 16 15 16 17 18 19 20 20 20 20 19 18 17 16 16
18 18 17 17 17 16 16 16 15 15 14 14 14 15 16 16 16 15 15 15 15 14 14 13 13 14 15 15 16 16 16 17 18 19 20 21 21 21 21 21 20 19 18
18 17 17 17 16 16 16 16 15 15 15 14 15 15 16 16 17 17 17 17 16 15 15 14 14 14 15 16 17 17 17 17 18 20 20 20 21 22 23 23 23 22 21
17 17 17 17 16 16 16 16 16 16 16 15 15 16 16 17 17 17 18 18 17 17 17 16 15 15 16 17 18 18 17 17 18 19 20 20 21 22 23 24 24 24 24
17 17 17 17 17 16 16 16 16 17 16 16 16 17 17 17 17 18 18 18 18 18 19 19 18 18 19 19 19 19 18 17 18 19 19 19 20 21 22 23 24 25 25
17 17 17 17 17 17 17 17 17 17 17 17 17 17 17 17 18 18 17 17 17 18 19 20 20 20 20 20 20 19 18 17 17 18 19 19 19 20 21 22 24 24 25
17 17 18 17 17 17 17 17 17 17 16 16 17 18 18 18 18 18 17 16 16 17 19 20 20 21 21 20 20 19 18 16 16 17 19 19 19 19 19 21 23 24 24